This demonstration page uses our WeatherBlox Daily Observations layout. Learn more.

Left ArrowRight Arrow

34.74481, -87.66753

Hourly Observations for January 11, 2020

Temp ( °F °C ) Dew Point ( °F °C ) Humidity (%) Winds ( mph kmh ) Pressure ( in mb ) Visibility ( mi km ) Precip ( " mm )
12:12 am 00:12 Cloudy 64 17.8 61 16.1 90 90 SSE 15 24 29.97 1015 10 16 0.00 0.00
12:53 am 00:53 Cloudy 66 18.9 62 16.7 87 87 S 15 24 29.94 1014 10 16 0.00 0.00
1:40 am 01:40 Cloudy 67 19.4 62 16.7 84 84 S 20 31 29.91 1013 10 16 0.00 0.00
1:53 am 01:53 Cloudy 67 19.4 63 17.2 87 87 SSE 21 33 29.88 1012 10 16 0.00 0.00
2:53 am 02:53 Cloudy 67 19.4 63 17.2 87 87 SSE 24 39 29.85 1011 9 14 0.00 0.00
3:15 am 03:15 Cloudy 68 20 63 17.2 84 84 SSE 16 26 29.86 1011 10 16 0.00 0.00
3:53 am 03:53 Cloudy 68 20 63 17.2 84 84 S 21 33 29.86 1011 10 16 0.00 0.00
4:53 am 04:53 Cloudy with Light Rain 67 19.4 63 17.2 87 87 SSE 22 35 29.81 1010 7 11 0.03 0.76
5:53 am 05:53 Cloudy 68 20 63 17.2 84 84 SSE 24 39 29.79 1009 10 16 0.01 0.25
6:53 am 06:53 Cloudy 70 21.1 63 17.2 79 79 S 24 39 29.78 1009 10 16 0.00 0.00
7:53 am 07:53 Cloudy 70 21.1 64 17.8 82 82 S 22 35 29.80 1009 10 16 0.00 0.00
8:53 am 08:53 Cloudy with Light Rain 66 18.9 60 15.6 81 81 W 24 39 29.86 1011 5 8 0.00 0.00
8:55 am 08:55 Cloudy with Rain 65 18.3 61 16.1 87 87 W 21 33 29.87 1012 2 3 0.01 0.25
9:02 am 09:02 Cloudy with Heavy Rain 64 17.8 61 16.1 90 90 SW 16 26 29.88 1012 1 1 0.05 1.27
9:12 am 09:12 Cloudy with Heavy Rain 63 17.2 61 16.1 93 93 WSW 18 30 29.89 1012 1 1 0.16 4.06
9:24 am 09:24 Cloudy with Heavy Rain 63 17.2 61 16.1 93 93 WSW 6 9 29.88 1012 2 2 0.34 8.64
9:50 am 09:50 Cloudy with Heavy Rain 63 17 61 16 94 94 SW 7 11 29.89 1012 1 1 0.72 18.29
9:53 am 09:53 Cloudy with Heavy Rain 63 17.2 61 16.1 93 93 SW 8 13 29.89 1012 1 1 0.76 19.30
10:00 am 10:00 Cloudy with Heavy Rain 63 17.2 61 16.1 93 93 S 8 13 29.91 1013 1 2 0.10 2.54
10:12 am 10:12 Cloudy with Nearby Thunderstorms 63 17.2 60 15.6 90 90 S 3 6 29.89 1012 1 1 0.26 6.60
10:38 am 10:38 Cloudy with Nearby Thunderstorms 62 16.7 60 15.6 93 93 Calm 29.87 1012 1 1 0.61 15.49
10:47 am 10:47 Cloudy with Strong Thunderstorms 63 17 61 16 94 94 SE 3 6 29.88 1012 1 2 0.73 18.54
10:53 am 10:53 Cloudy with Strong Thunderstorms 62 16.7 60 15.6 93 93 Calm 29.87 1012 1 1 0.81 20.57
11:10 am 11:10 Cloudy with Strong Thunderstorms 62 16.7 59 15 90 90 VRB 7 11 29.86 1011 1 2 0.22 5.59
11:21 am 11:21 Cloudy with Strong Thunderstorms 61 16.1 59 15 93 93 SE 8 13 29.87 1011 1 1 0.38 9.65
11:33 am 11:33 Cloudy with Strong Thunderstorms 61 16.1 60 15.6 97 97 SSE 7 11 29.86 1011 1 2 0.55 13.97
11:53 am 11:53 Cloudy with Strong Thunderstorms 61 16.1 60 15.6 97 97 SE 6 9 29.82 1010 3 4 0.82 20.83
12:03 pm 12:03 Cloudy with Nearby Thunderstorms 62 16.7 60 15.6 93 93 SE 7 11 29.80 1009 3 5 0.12 3.05
12:36 pm 12:36 Cloudy with Heavy Rain 62 16.7 60 15.6 93 93 SE 9 15 29.78 1009 3 5 0.46 11.68
12:53 pm 12:53 Cloudy with Heavy Rain 63 17.2 60 15.6 90 90 SSE 9 15 29.76 1008 3 5 0.58 14.73
1:53 pm 13:53 Cloudy with Light Rain 64 17.8 61 16.1 90 90 S 14 22 29.74 1007 10 16 0.11 2.79
2:53 pm 14:53 Cloudy 66 18.9 61 16.1 84 84 SSW 17 28 29.72 1006 10 16 0.01 0.25
3:53 pm 15:53 Cloudy 66 18.9 59 15 78 78 WSW 21 33 29.76 1008 10 16 0.00 0.00
4:08 pm 16:08 Mostly Cloudy 66 18.9 58 14.4 75 75 WSW 21 33 29.78 1008 10 16 0.00 0.00
4:53 pm 16:53 Cloudy with Rain 64 17.8 58 14.4 81 81 W 31 50 29.83 1010 4 6 0.01 0.25
5:17 pm 17:17 Mostly Cloudy 62 16.7 55 12.8 78 78 W 24 39 29.85 1011 10 16 0.01 0.25
5:48 pm 17:48 Mostly Cloudy 61 16 54 12 77 77 W 22 35 29.91 1013 10 16 0.01 0.25
5:53 pm 17:53 Mostly Cloudy 60 15.6 53 11.7 78 78 W 21 33 29.91 1013 10 16 0.01 0.25
6:53 pm 18:53 Mostly Cloudy 54 12.2 49 9.4 83 83 WNW 14 22 29.98 1015 10 16 0.02 0.51
7:50 pm 19:50 Mostly Cloudy 54 12 46 8 77 77 WSW 13 20 30.04 1017 10 16 0.00 0.00
7:53 pm 19:53 Partly Cloudy 53 11.7 46 7.8 77 77 W 12 19 30.04 1017 10 16 0.00 0.00
8:49 pm 20:49 Mostly Cloudy 52 11 45 7 77 77 W 13 20 30.09 1019 10 16 0.00 0.00
8:53 pm 20:53 Mostly Cloudy 52 11.1 45 7.2 77 77 W 14 22 30.08 1019 10 16 0.00 0.00
9:53 pm 21:53 Cloudy 50 10 44 6.7 80 80 W 12 19 30.11 1020 10 16 0.00 0.00
10:53 pm 22:53 Cloudy 50 10 45 7.2 83 83 WNW 10 17 30.15 1021 10 16 0.00 0.00
11:53 pm 23:53 Cloudy 49 9.4 44 6.7 83 83 NNW 6 9 30.15 1021 10 16 0.00 0.00

Powered by AerisWeather